CAPE
0 0 0 0 0 0 0 0 0 0 0 0 0 0 0 0 0 0 0 0 0 0 0 0 0 0 0 0 0 0 0 0 0 0 0 0 0 0 0 0 0 0 0 0
0 0 0 0 0 0 0 0 0 0 0 0 0 0 0 0 0 0 0 0 0 0 0 0 0 0 0 0 0 0 0 0 0 0 0 0 0 0 0 0 0 0 0 0
0 0 0 0 0 0 0 0 0 0 0 0 0 0 0 0 0 0 0 0 0 0 0 0 0 0 0 0 0 0 0 0 0 0 0 0 0 0 0 0 0 0 0 0
0 0 0 0 0 0 0 0 0 0 0 0 0 0 0 0 0 0 0 0 0 0 0 0 0 0 0 0 0 0 0 0 0 0 0 0 0 0 0 0 0 0 0 0
0 0 0 0 0 0 0 0 0 0 0 0 0 0 0 0 0 0 0 0 0 0 0 0 0 0 0 0 0 0 0 0 0 0 0 0 0 0 0 0 0 0 0 0
0 0 0 0 0 0 0 0 0 0 0 0 0 0 0 0 0 0 0 0 0 0 0 0 0 0 0 0 0 0 0 0 0 0 0 0 0 0 0 0 0 0 0 0
0 0 0 0 0 0 0 0 0 0 0 0 0 0 0 0 0 0 0 0 0 0 0 0 0 0 0 0 0 0 0 0 0 0 0 0 0 0 0 0 0 0 0 0
0 0 0 0 0 0 0 0 0 0 0 0 0 0 0 0 0 0 0 0 0 0 0 0 0 0 0 0 0 0 0 0 0 0 0 0 0 0 0 0 0 0 0 0
0 0 0 0 0 0 0 0 0 0 0 0 0 0 0 0 0 0 0 0 0 0 0 0 0 0 0 0 0 0 0 0 0 0 0 0 0 0 0 0 0 0 0 0
0 0 0 0 0 0 0 0 0 0 0 0 0 0 0 0 0 0 0 0 0 0 0 0 0 0 0 0 0 0 0 0 0 0 0 0 0 0 0 0 0 0 0 0
0 0 0 0 0 0 0 0 0 0 0 0 0 0 0 0 0 0 0 0 0 0 0 0 0 0 0 0 0 0 0 0 0 0 0 0 0 0 0 0 0 0 0 0
0 0 0 0 0 0 0 0 0 0 0 0 0 0 0 0 0 0 0 0 0 0 0 0 0 0 0 0 0 0 0 0 0 0 0 0 0 0 0 0 0 0 0 0
0 0 0 0 0 0 0 0 0 0 0 0 0 0 0 0 0 0 0 0 0 0 0 0 0 0 0 0 0 0 0 0 0 0 0 0 0 0 0 0 0 0 0 0
0 0 0 0 0 0 0 0 0 0 0 0 0 0 0 0 0 0 0 0 0 0 0 0 0 0 0 0 0 0 0 0 0 0 0 0 0 0 0 0 0 0 0 0
0 0 0 0 0 0 0 0 0 0 0 0 0 0 0 0 0 0 0 0 0 0 0 0 0 0 0 0 0 0 0 0 0 0 0 0 0 0 0 0 0 0 0 0
0 0 0 0 0 0 0 0 0 0 0 0 0 0 0 0 0 0 0 0 0 0 0 0 0 0 0 0 0 0 0 0 0 0 0 0 0 0 0 0 0 0 0 0
0 1 0 0 0 0 0 0 0 0 0 0 0 0 0 0 0 0 0 0 0 0 0 0 0 0 0 0 0 0 0 0 0 0 0 0 0 0 0 0 0 0 0 0
0 0 1 0 0 0 0 0 0 0 0 0 0 0 0 0 0 0 0 0 0 0 0 0 0 0 0 0 0 0 0 0 0 0 0 0 0 0 0 0 0 0 0 0
1 1 0 0 0 0 0 0 0 0 0 0 0 0 0 0 0 0 0 0 0 0 0 0 0 0 0 0 0 0 0 0 0 0 0 0 0 0 0 0 0 0 0 0
1 0 1 0 0 0 0 0 0 0 0 0 0 0 0 0 0 0 0 0 0 0 0 0 0 0 0 0 0 0 0 0 0 0 0 0 0 0 0 0 0 0 0 0
1 1 0 1 0 0 0 0 0 0 0 0 0 0 0 0 0 0 0 0 0 0 0 0 0 0 0 0 0 0 0 0 0 0 0 0 0 0 0 0 0 0 0 0
0 0 0 0 0 0 0 0 0 0 0 0 0 0 0 0 0 0 0 0 0 0 0 0 0 0 0 0 0 0 0 0 0 0 0 0 0 0 0 0 0 0 0 0
0 0 0 0 0 0 0 0 0 0 0 0 0 0 0 0 0 0 0 0 0 0 0 0 0 0 0 0 0 0 0 0 0 0 0 0 0 0 0 0 0 0 0 0
0 0 0 0 0 0 0 0 0 0 0 0 0 0 0 0 0 0 0 0 0 0 0 0 0 0 0 0 0 0 0 0 0 0 0 0 0 0 0 0 0 0 0 0
0 0 0 0 0 0 0 0 0 0 0 0 0 0 0 0 0 0 0 0 0 0 0 0 0 0 0 0 0 0 0 0 0 0 0 0 0 0 0 0 0 0 0 0
0 0 0 0 0 0 0 0 0 0 0 0 0 0 0 0 0 0 0 0 0 0 0 0 0 0 0 0 0 0 0 0 0 0 0 0 0 0 0 0 0 0 0 0
CIN
0 0 0 0 0 0 0 0 0 0 0 0 0 0 0 0 0 0 0 0 0 0 0 0 0 0 0 0 0 0 0 0 0 0 0 0 0 0 0 0 0 0 0 0
0 0 0 0 0 0 0 0 0 0 0 0 0 0 0 0 0 0 0 0 0 0 0 0 0 0 0 0 0 0 0 0 0 0 0 0 0 0 0 0 0 0 0 0
0 0 0 0 0 0 0 0 0 0 0 0 0 0 0 0 0 0 0 0 0 0 0 0 0 0 0 0 0 0 0 0 0 0 0 0 0 0 0 0 0 0 0 0
0 0 0 0 0 0 0 0 0 0 0 0 0 0 0 0 0 0 0 0 0 0 0 0 0 0 0 0 0 0 0 0 0 0 0 0 0 0 0 0 0 0 0 0
0 0 0 0 0 0 0 0 0 0 0 0 0 0 0 0 0 0 0 0 0 0 0 0 0 0 0 0 0 0 0 0 0 0 0 0 0 0 0 0 0 0 0 0
0 0 0 0 0 0 0 0 0 0 0 0 0 0 0 0 0 0 0 0 0 0 0 0 0 0 0 0 0 0 0 0 0 0 0 0 0 0 0 0 0 0 0 0
0 0 0 0 0 0 0 0 0 0 0 0 0 0 0 0 0 0 0 0 0 0 0 0 0 0 0 0 0 0 0 0 0 0 0 0 0 0 0 0 0 0 0 0
0 0 0 0 0 0 0 0 0 0 0 0 0 0 0 0 0 0 0 0 0 0 0 0 0 0 0 0 0 0 0 0 0 0 0 0 0 0 0 0 0 0 0 0
0 0 0 0 0 0 0 0 0 0 0 0 0 0 0 0 0 0 0 0 0 0 0 0 0 0 0 0 0 0 0 0 0 0 0 0 0 0 0 0 0 0 0 0
0 0 0 0 0 0 0 0 0 0 0 0 0 0 0 0 0 0 0 0 0 0 0 0 0 0 0 0 0 0 0 0 0 0 0 0 0 0 0 0 0 0 0 0
0 0 0 0 0 0 0 0 0 0 0 0 0 0 0 0 0 0 0 0 0 0 0 0 0 0 0 0 0 0 0 0 0 0 0 0 0 0 0 0 0 0 0 0
0 0 0 0 0 0 0 0 0 0 0 0 0 0 0 0 0 0 0 0 0 0 0 0 0 0 0 0 0 0 0 0 0 0 0 0 0 0 0 0 0 0 0 0
0 0 0 0 0 0 0 0 0 0 0 0 0 0 0 0 0 0 0 0 0 0 0 0 0 0 0 0 0 0 0 0 0 0 0 0 0 0 0 0 0 0 0 0
0 0 0 0 0 0 0 0 0 0 0 0 0 0 0 0 0 0 0 0 0 0 0 0 0 0 0 0 0 0 0 0 0 0 0 0 0 0 0 0 0 0 0 0
0 0 0 0 0 0 0 0 0 0 0 0 0 0 0 0 0 0 0 0 0 0 0 0 0 0 0 0 0 0 0 0 0 0 0 0 0 0 0 0 0 0 0 0
0 0 0 0 0 0 0 0 0 0 0 0 0 0 0 0 0 0 0 0 0 0 0 0 0 0 0 0 0 0 0 0 0 0 0 0 0 0 0 0 0 0 0 0
0 0 0 0 0 0 0 0 0 0 0 0 0 0 0 0 0 0 0 0 0 0 0 0 0 0 0 0 0 0 0 0 0 0 0 0 0 0 0 0 0 0 0 0
0 0 0 0 0 0 0 0 0 0 0 0 0 0 0 0 0 0 0 0 0 0 0 0 0 0 0 0 0 0 0 0 0 0 0 0 0 0 0 0 0 0 0 0
-4 0 0 0 0 0 0 0 0 0 0 0 0 0 0 0 0 0 0 0 0 0 0 0 0 0 0 0 0 0 0 0 0 0 0 0 0 0 0 0 0 0 0 0
-4 0 0 0 0 0 0 0 0 0 0 0 0 0 0 0 0 0 0 0 0 0 0 0 0 0 0 0 0 0 0 0 0 0 0 0 0 0 0 0 0 0 0 0
0 0 0 0 0 0 0 0 0 0 0 0 0 0 0 0 0 0 0 0 0 0 0 0 0 0 0 0 0 0 0 0 0 0 0 0 0 0 0 0 0 0 0 0
0 0 0 0 0 0 0 0 0 0 0 0 0 0 0 0 0 0 0 0 0 0 0 0 0 0 0 0 0 0 0 0 0 0 0 0 0 0 0 0 0 0 0 0
0 0 0 0 0 0 0 0 0 0 0 0 0 0 0 0 0 0 0 0 0 0 0 0 0 0 0 0 0 0 0 0 0 0 0 0 0 0 0 0 0 0 0 0
0 0 0 0 0 0 0 0 0 0 0 0 0 0 0 0 0 0 0 0 0 0 0 0 0 0 0 0 0 0 0 0 0 0 0 0 0 0 0 0 0 0 0 0
0 0 0 0 0 0 0 0 0 0 0 0 0 0 0 0 0 0 0 0 0 0 0 0 0 0 0 0 0 0 0 0 0 0 0 0 0 0 0 0 0 0 0 0
0 0 0 0 0 0 0 0 0 0 0 0 0 0 0 0 0 0 0 0 0 0 0 0 0 0 0 0 0 0 0 0 0 0 0 0 0 0 0 0 0 0 0 0
Wind_Speed
21 24 25 20 20 25 25 26 26 24 24 23 22 17 19 17 14 13 12 13 12 12 13 12 12 11 10 8 6 5 3 3 2 1 1 2 2 4 5 5 5 5 6 7
23 29 24 24 23 26 28 32 34 33 28 24 29 27 27 25 21 17 16 15 15 16 15 14 14 13 12 9 7 6 5 4 4 4 3 3 1 4 4 4 4 5 5 6
27 27 21 22 25 27 29 30 31 32 29 29 35 40 30 25 24 25 20 18 18 17 17 17 16 15 13 12 10 7 5 6 6 5 3 2 2 3 4 3 3 4 5 6
33 28 26 25 28 24 34 25 28 30 32 40 27 54 34 26 25 22 17 21 18 18 18 18 17 16 15 14 11 9 7 6 6 6 6 6 4 3 4 1 2 3 4 6
35 29 26 30 28 21 31 24 27 30 34 38 33 41 37 26 24 21 16 23 18 16 17 18 19 17 15 13 12 10 8 8 8 7 7 6 5 3 2 1 2 2 4 6
37 29 27 29 25 23 22 26 28 30 33 44 35 35 44 30 21 33 23 26 18 15 16 17 17 16 15 13 12 11 11 10 9 9 8 7 7 6 6 4 2 0 3 5
37 36 31 26 29 25 23 25 37 39 36 42 34 36 31 28 31 26 40 36 28 18 15 14 16 16 15 14 13 12 12 12 11 11 9 9 8 9 8 6 4 2 2 4
40 45 33 29 31 30 26 25 31 40 41 42 29 33 34 16 15 33 33 37 29 20 15 13 14 15 15 15 14 14 14 13 13 12 11 10 10 9 7 5 4 3 3 3
36 41 30 29 27 22 28 31 28 39 38 45 38 41 42 28 26 29 30 30 26 19 16 12 13 14 14 15 15 15 15 14 14 13 12 12 11 9 8 6 4 3 3 4
34 42 32 29 25 27 27 18 27 27 37 41 38 40 32 28 21 17 26 24 18 14 13 12 13 14 13 14 14 15 15 15 15 14 14 13 12 10 8 7 6 5 4 5
32 34 34 26 31 28 26 28 26 24 29 36 45 40 23 15 17 22 24 24 18 12 11 11 13 14 14 14 15 16 16 16 16 15 15 14 12 11 9 9 8 7 6 6
31 33 43 36 30 30 29 31 27 32 33 34 41 53 23 24 23 21 27 28 22 15 12 10 12 13 14 15 16 17 17 17 17 17 16 15 13 12 11 10 10 9 8 8
21 32 41 40 37 31 33 32 30 33 32 39 39 35 20 21 25 26 27 29 25 19 15 14 14 15 15 17 18 19 19 19 19 18 17 16 15 14 13 12 11 10 10 10
22 31 38 46 37 29 37 35 35 35 43 41 40 42 34 30 32 31 32 28 23 18 15 14 14 16 17 17 19 20 20 20 20 20 19 18 17 15 14 13 13 13 12 12
30 43 40 47 44 36 37 38 38 40 41 41 43 42 40 38 38 38 36 31 28 25 21 18 18 16 17 19 21 22 22 22 21 22 22 21 18 17 16 15 15 14 14 15
33 43 42 55 48 45 48 47 44 42 42 43 46 49 36 40 38 37 35 33 31 28 26 23 21 21 20 21 22 23 23 23 23 24 23 21 20 19 18 17 17 16 17 17
43 44 45 55 46 44 51 45 43 44 42 40 45 47 43 45 43 41 38 35 33 31 28 27 24 22 23 23 22 23 23 22 23 24 23 22 21 21 20 19 19 19 19 18
43 44 42 50 45 54 49 48 42 44 47 42 46 47 46 48 47 44 38 37 35 33 33 30 27 25 23 21 20 20 21 22 23 24 24 23 23 23 21 22 22 21 20 20
38 40 45 49 53 49 50 44 37 36 49 43 45 50 51 46 46 52 38 36 37 35 31 28 25 23 20 20 19 19 20 21 23 25 25 25 23 24 25 24 23 22 22 23
46 42 45 41 51 54 53 42 37 31 53 41 37 43 44 38 44 49 36 33 31 28 25 23 19 18 18 18 17 17 18 19 21 22 23 23 25 25 25 24 24 24 24 25
44 48 53 53 53 46 39 32 22 39 48 31 31 34 34 36 36 37 32 29 26 23 21 17 15 15 14 13 13 16 16 18 18 18 20 22 23 23 23 24 24 23 25 26
40 43 49 50 54 56 29 27 40 37 30 28 28 28 30 31 32 32 31 26 21 19 16 14 13 12 12 11 12 15 18 18 17 17 17 17 18 20 21 21 22 23 24 25
45 38 40 37 39 32 25 30 28 26 29 29 31 32 29 27 27 25 22 19 17 14 12 9 10 11 11 11 13 15 15 13 12 12 14 15 15 17 18 20 22 23 23 24
38 31 38 36 35 31 28 27 27 26 26 24 22 22 23 25 22 21 18 15 13 11 11 11 11 12 12 10 11 12 10 9 10 13 14 15 16 18 19 20 20 21 22 24
37 30 35 36 34 32 30 28 24 21 20 19 20 22 21 19 19 17 14 12 11 10 9 8 7 7 7 8 8 9 9 10 13 15 17 18 18 18 18 19 20 21 23 24
38 37 38 40 32 31 30 25 19 19 19 19 22 21 19 17 15 13 12 11 9 8 8 7 7 6 7 8 11 13 13 14 15 17 18 18 18 18 19 20 22 22 24 24
Wind_Direction
284 281 281 287 287 292 298 298 300 307 311 308 303 296 304 304 296 290 283 277 266 254 280 276 277 279 285 290 296 303 299 284 258 218 253 312 331 356 3 4 20 21 16 17
282 279 286 291 289 289 292 293 294 299 304 301 301 297 297 299 295 280 272 267 263 276 269 264 266 268 268 269 273 282 277 257 257 246 251 283 320 343 355 6 12 7 13 28
277 287 294 285 287 287 289 290 296 297 305 304 302 297 295 295 293 293 282 267 275 255 253 256 256 258 261 260 260 261 251 249 254 237 237 254 327 340 332 351 4 0 20 31
279 280 286 286 284 286 286 296 296 298 300 296 306 287 300 305 300 295 268 283 262 268 264 254 251 254 254 255 252 254 246 242 232 222 212 201 230 234 283 283 359 25 17 24
275 280 276 278 283 285 290 300 298 298 296 296 295 298 303 306 304 302 280 294 285 271 254 245 241 245 249 248 248 242 234 233 225 222 219 227 230 250 182 153 110 57 17 14
275 283 279 280 284 281 295 295 300 301 298 289 292 292 292 300 294 301 300 301 298 283 266 257 250 247 243 245 242 235 230 230 225 224 224 220 202 183 173 173 172 48 350 4
274 273 279 280 281 285 281 289 289 290 290 290 300 290 282 305 300 300 284 290 301 299 280 262 242 236 232 228 228 231 226 228 228 225 223 217 198 184 178 182 199 220 308 333
268 273 268 273 269 278 271 271 279 287 289 293 300 291 300 310 310 297 295 293 300 300 288 264 237 231 228 228 227 229 225 227 223 222 218 211 199 196 203 217 225 259 293 331
271 273 283 281 276 265 277 267 278 283 289 288 290 290 294 300 306 303 303 305 303 298 286 260 238 230 225 225 225 221 219 219 217 217 212 207 206 209 214 224 245 260 295 322
273 275 281 278 277 275 268 278 278 276 282 284 289 292 293 306 307 308 308 312 315 306 292 267 242 236 234 233 229 226 222 218 218 216 214 213 215 217 221 225 236 251 275 299
264 270 276 276 266 260 266 265 274 278 276 283 288 293 307 305 313 315 310 313 316 307 292 269 253 247 244 241 232 223 221 220 219 218 219 217 218 224 230 238 246 257 272 286
258 270 266 267 277 272 266 268 258 271 278 280 284 252 295 304 315 320 313 310 311 304 289 271 258 249 244 238 228 223 225 223 224 225 223 221 225 232 236 243 249 255 268 282
261 267 267 271 271 272 265 263 259 271 283 274 277 267 298 304 305 312 314 313 310 303 290 276 265 253 245 238 233 230 229 230 232 230 227 230 234 237 241 246 248 255 266 279
261 266 263 263 274 269 266 262 259 260 270 270 264 275 283 293 298 302 308 308 306 304 295 281 268 259 250 242 237 236 237 237 233 233 235 234 237 240 244 249 252 258 266 273
256 264 266 266 269 269 269 266 261 257 254 268 251 276 279 284 291 295 298 296 294 293 290 280 270 262 254 247 243 241 240 238 237 237 237 240 244 248 253 254 257 263 268 275
265 265 268 267 267 268 269 270 264 256 260 263 270 275 285 291 293 293 292 288 287 286 283 281 274 263 254 247 243 242 240 238 237 239 238 242 245 248 252 258 260 265 270 275
261 264 267 266 269 270 269 254 266 267 263 263 267 250 287 286 287 289 288 285 282 281 281 279 271 263 256 249 244 241 241 242 238 239 242 244 248 252 257 261 263 266 269 274
265 259 261 267 270 265 266 272 266 264 267 266 273 276 283 286 288 289 288 286 282 281 282 279 274 270 261 256 250 249 245 244 241 243 245 250 252 256 260 264 264 267 272 272
259 259 265 263 265 273 273 272 269 268 271 267 270 277 283 286 289 284 287 285 284 284 281 278 273 267 263 256 254 254 251 247 244 246 249 251 254 259 263 262 264 269 274 277
256 255 259 270 266 267 274 275 274 278 276 279 273 277 281 284 283 287 294 290 287 284 280 278 272 265 260 256 250 248 248 248 248 249 251 255 260 262 260 262 266 273 276 280
257 254 255 260 266 274 277 281 278 267 281 292 287 284 284 281 283 291 296 295 294 291 285 277 267 261 258 248 243 249 251 250 255 262 263 263 263 261 265 269 273 276 281 285
265 261 259 263 266 267 273 273 268 282 287 290 294 294 293 292 292 292 295 295 294 291 286 278 269 270 269 258 252 261 265 272 271 267 265 264 264 267 269 270 277 281 283 285
266 266 270 270 274 281 272 280 280 287 285 288 291 292 294 296 297 298 298 298 296 292 288 283 272 277 280 272 267 272 276 275 272 270 270 270 272 273 275 277 282 285 285 287
266 269 270 277 276 279 282 283 284 286 289 292 295 297 298 298 298 300 298 297 297 296 291 290 282 282 284 283 283 288 283 282 279 280 279 280 281 283 285 287 287 287 288 290
267 263 266 274 276 283 282 280 282 286 292 295 300 303 300 300 299 300 301 299 299 298 300 296 290 287 288 295 301 300 292 290 289 290 290 289 289 288 289 291 290 291 296 295
264 267 264 271 280 281 284 278 271 276 283 293 301 301 302 301 299 300 298 298 296 294 294 295 296 297 299 302 303 304 302 298 294 293 293 292 293 293 292 293 297 302 302 301